EW8182 Weather Reports


time (UTC)temp
C
wind
direction
speed
KPH
gust
KPH
rain 1hr
cm
rain 24hr
cm
rain mn
cm
humidity
%
barometer
mb
20260503174200 15 207 19.3 32.2 0.00 0.00 0.00 39 1016.5
20260503173702 15 222 17.7 35.4 0.00 0.00 0.00 41 1016.5
20260503173200 15 232 17.7 35.4 0.00 0.00 0.00 40 1016.7
20260503172700 15 203 16.1 33.8 0.00 0.00 0.00 42 1016.8
20260503172200 15 227 19.3 35.4 0.00 0.00 0.00 42 1016.9
20260503171700 15 207 19.3 35.4 0.00 0.00 0.00 42 1016.7
20260503171200 15 217 17.7 30.6 0.00 0.00 0.00 44 1017.0
20260503170701 15 219 17.7 33.8 0.00 0.00 0.00 44 1017.0
20260503170200 15 229 19.3 33.8 0.00 0.00 0.00 44 1017.2
20260503160156 13 232 14.5 25.7 0.00 0.00 0.00 52 1018.0
20260503150657 12 271 9.7 29.0 0.00 0.00 0.00 51 1018.4
20260503150156 12 225 8.0 24.1 0.00 0.00 0.00 52 1018.3
20260503131154 8 265 11.3 20.9 0.00 0.00 0.00 67 1018.4
20260503130653 7 249 9.7 19.3 0.00 0.00 0.00 69 1018.3
20260503130154 7 242 9.7 16.1 0.00 0.00 0.00 72 1018.4
20260503120154 3 227 3.2 8.0 0.00 0.00 0.00 87 1018.3
20260503110655 1 240 1.6 4.8 0.00 0.00 0.00 88 1017.8
20260503110651 1 241 1.6 3.2 0.00 0.00 0.00 88 1017.8
20260503100148 0 351 0.0 1.6 0.00 0.00 0.00 90 1017.2
20260503090146 0 350 0.0 0.0 0.00 0.00 0.00 90 1017.2
20260503081142 0 350 0.0 0.0 0.00 0.00 0.00 88 1017.2
20260503080647 1 351 0.0 0.0 0.00 0.00 0.00 88 1017.1
20260503080642 0 350 0.0 0.0 0.00 0.00 0.00 88 1017.1
20260503072642 1 351 0.0 0.0 0.00 0.00 0.00 88 1017.0
20260503072141 1 351 0.0 0.0 0.00 0.00 0.00 88 1017.1
20260503071641 1 350 0.0 0.0 0.00 0.00 0.00 88 1017.1
20260503071145 1 351 0.0 0.0 0.00 0.00 0.00 87 1017.1
20260503071141 1 351 0.0 0.0 0.00 0.00 0.00 88 1017.1
20260503070145 1 350 0.0 0.0 0.00 0.00 0.00 87 1017.2
20260503070141 1 351 0.0 0.0 0.00 0.00 0.00 87 1017.2
20260503060140 1 350 0.0 0.0 0.00 0.00 0.00 88 1017.4
20260503054640 1 350 0.0 0.0 0.00 0.00 0.00 88 1017.4
20260503054243 1 351 0.0 0.0 0.00 0.00 0.00 88 1017.4
20260503053143 1 351 0.0 0.0 0.00 0.00 0.00 88 1017.5
20260503053139 1 350 0.0 0.0 0.00 0.00 0.00 88 1017.5
20260503052139 1 351 0.0 0.0 0.00 0.00 0.00 88 1017.5
20260503051638 1 351 0.0 0.0 0.00 0.00 0.00 88 1017.4
20260503051141 1 350 0.0 0.0 0.00 0.00 0.00 88 1017.5
20260503051137 1 351 0.0 0.0 0.00 0.00 0.00 88 1017.4
20260503050136 1 351 0.0 0.0 0.00 0.00 0.00 88 1017.4
20260503045641 1 351 0.0 0.0 0.00 0.00 0.00 88 1017.4
20260503045637 1 350 0.0 0.0 0.00 0.00 0.00 88 1017.4
20260503045241 1 351 0.0 0.0 0.00 0.00 0.00 88 1017.4
20260503044137 1 351 0.0 0.0 0.00 0.00 0.00 88 1017.4
20260503043636 1 350 0.0 0.0 0.00 0.00 0.00 88 1017.4
20260503043136 1 351 0.0 0.0 0.00 0.00 0.00 88 1017.4
20260503042637 1 351 0.0 0.0 0.00 0.00 0.00 87 1017.4
20260503042135 2 351 0.0 0.0 0.00 0.00 0.00 87 1017.5
20260503041634 2 351 0.0 0.0 0.00 0.00 0.00 87 1017.5
20260503041134 2 351 0.0 0.0 0.00 0.00 0.00 86 1017.4
20260503040634 2 350 0.0 0.0 0.00 0.00 0.00 86 1017.4
20260503040140 2 350 0.0 0.0 0.00 0.00 0.00 85 1017.4
20260503040134 2 350 0.0 0.0 0.00 0.00 0.00 86 1017.4
20260503035635 2 351 0.0 0.0 0.00 0.00 0.00 85 1017.4
20260503035133 2 351 0.0 0.0 0.00 0.00 0.00 85 1017.3
20260503034133 2 351 0.0 0.0 0.00 0.00 0.00 84 1017.4
20260503033634 2 351 0.0 0.0 0.00 0.00 0.00 84 1017.4
20260503033134 2 351 0.0 0.0 0.00 0.00 0.00 89 1017.4
20260503032634 2 350 0.0 0.0 0.00 0.00 0.00 84 1017.5
20260503032138 2 351 0.0 0.0 0.00 0.00 0.00 82 1017.5
20260503032133 2 351 0.0 0.0 0.00 0.00 0.00 83 1017.5
20260503031738 2 351 0.0 0.0 0.00 0.00 0.00 82 1017.5
20260503031239 2 350 0.0 0.0 0.00 0.00 0.00 82 1017.5
20260503030138 3 351 0.0 0.0 0.00 0.00 0.00 79 1017.5
20260503030134 3 351 0.0 0.0 0.00 0.00 0.00 81 1017.4
20260503025134 3 350 0.0 0.0 0.00 0.00 0.00 79 1017.5
20260503024634 3 351 0.0 0.0 0.00 0.00 0.00 79 1017.6
20260503024133 3 351 0.0 0.0 0.00 0.00 0.00 79 1017.6
20260503023638 3 351 0.0 0.0 0.00 0.00 0.00 80 1017.6
20260503023134 3 350 0.0 0.0 0.00 0.00 0.00 79 1017.5
20260503022633 3 350 0.0 0.0 0.00 0.00 0.00 79 1017.5
20260503022134 3 351 0.0 0.0 0.00 0.00 0.00 79 1017.5
20260503021634 3 351 0.0 0.0 0.00 0.00 0.00 79 1017.5
20260503021134 3 350 0.0 0.0 0.00 0.00 0.00 78 1017.6
20260503020633 4 351 0.0 0.0 0.00 0.00 0.00 77 1017.5
20260503020138 4 350 0.0 1.6 0.00 0.00 0.00 76 1017.5
20260503020134 4 351 0.0 0.0 0.00 0.00 0.00 77 1017.4
20260503015134 4 350 0.0 1.6 0.00 0.00 0.00 74 1017.4
20260503014633 5 351 0.0 1.6 0.00 0.00 0.00 72 1017.3
20260503014134 5 0 0.0 1.6 0.00 0.00 0.00 68 1017.3
20260503013633 5 0 0.0 0.0 0.00 0.00 0.00 64 1017.2
20260503013132 5 0 0.0 0.0 0.00 0.00 0.00 63 1017.2
20260503012631 5 0 0.0 0.0 0.00 0.00 0.00 63 1017.2
20260503012136 6 0 0.0 1.6 0.00 0.00 0.00 61 1017.1
20260503012132 6 0 0.0 0.0 0.00 0.00 0.00 62 1017.1
20260503011131 6 0 0.0 1.6 0.00 0.00 0.00 60 1017.1
20260503010631 6 0 0.0 3.2 0.00 0.00 0.00 59 1017.0
20260503010136 6 0 0.0 3.2 0.00 0.00 0.00 58 1016.9
20260503010132 6 0 1.6 3.2 0.00 0.00 0.00 59 1016.9
20260503005131 7 0 0.0 3.2 0.00 0.00 0.00 58 1016.9
20260503004632 7 0 0.0 3.2 0.00 0.00 0.00 57 1016.9
20260503004133 7 349 0.0 4.8 0.00 0.00 0.00 56 1016.9
20260503004129 7 355 0.0 4.8 0.00 0.00 0.00 57 1016.9
20260503003129 7 336 0.0 4.8 0.00 0.00 0.00 55 1016.9
20260503002633 7 340 1.6 9.7 0.00 0.00 0.00 55 1016.8
20260503002629 7 355 1.6 9.7 0.00 0.00 0.00 55 1016.9
20260503001633 8 0 1.6 8.0 0.00 0.00 0.00 53 1016.7
20260503001629 8 341 1.6 4.8 0.00 0.00 0.00 55 1016.7
20260503000629 8 0 3.2 9.7 0.00 0.00 0.00 53 1016.7
20260503000127 8 336 3.2 9.7 0.00 0.00 0.00 53 1016.7
20260502235628 8 314 3.2 16.1 0.00 0.00 0.00 52 1016.6
20260502235126 8 332 4.8 16.1 0.00 0.00 0.00 52 1016.6
20260502234627 8 329 4.8 14.5 0.00 0.00 0.00 52 1016.6
20260502234128 8 355 3.2 14.5 0.00 0.00 0.00 51 1016.5
20260502233627 8 342 1.6 11.3 0.00 0.00 0.00 51 1016.5
20260502233127 8 334 1.6 8.0 0.00 0.00 0.00 52 1016.5
20260502232631 8 321 3.2 12.9 0.00 0.00 0.00 49 1016.4
20260502232627 8 321 1.6 12.9 0.00 0.00 0.00 50 1016.4
20260502231626 9 319 4.8 11.3 0.00 0.00 0.00 50 1016.4
20260502231126 9 325 4.8 16.1 0.00 0.00 0.00 50 1016.4
20260502230625 9 347 4.8 16.1 0.00 0.00 0.00 49 1016.4
20260502230125 9 307 3.2 14.5 0.00 0.00 0.00 49 1016.3
20260502225626 9 333 3.2 11.3 0.00 0.00 0.00 49 1016.4
20260502225125 9 316 1.6 11.3 0.00 0.00 0.00 48 1016.4
20260502224624 9 306 1.6 9.7 0.00 0.00 0.00 49 1016.3
20260502224131 10 331 3.2 9.7 0.00 0.00 0.00 48 1016.3
20260502224126 9 344 3.2 12.9 0.00 0.00 0.00 48 1016.3
20260502223625 9 355 3.2 12.9 0.00 0.00 0.00 48 1016.3
20260502222625 10 321 3.2 12.9 0.00 0.00 0.00 48 1016.3
20260502222123 10 338 4.8 16.1 0.00 0.00 0.00 47 1016.3
20260502221623 10 293 6.4 20.9 0.00 0.00 0.00 48 1016.3
20260502221123 9 336 6.4 20.9 0.00 0.00 0.00 48 1016.2
20260502220627 10 36 6.4 16.1 0.00 0.00 0.00 48 1016.1
20260502220623 10 344 4.8 17.7 0.00 0.00 0.00 47 1016.2
20260502215623 10 324 6.4 20.9 0.00 0.00 0.00 46 1016.1
20260502215123 10 327 4.8 20.9 0.00 0.00 0.00 45 1016.1
20260502214623 10 321 3.2 14.5 0.00 0.00 0.00 46 1016.0
20260502214123 10 331 3.2 8.0 0.00 0.00 0.00 47 1016.1
20260502213622 10 23 3.2 12.9 0.00 0.00 0.00 47 1016.0
20260502213122 10 346 4.8 14.5 0.00 0.00 0.00 46 1016.0
20260502212625 10 324 3.2 16.1 0.00 0.00 0.00 46 1016.0
20260502212621 10 337 3.2 16.1 0.00 0.00 0.00 48 1016.0
20260502211621 10 329 3.2 11.3 0.00 0.00 0.00 44 1016.0
20260502211125 10 346 3.2 14.5 0.00 0.00 0.00 46 1015.8
20260502211121 10 299 3.2 14.5 0.00 0.00 0.00 46 1015.9
20260502210121 11 0 4.8 14.5 0.00 0.00 0.00 45 1015.8
20260502205621 11 311 3.2 14.5 0.00 0.00 0.00 47 1015.8
20260502205124 11 348 3.2 14.5 0.00 0.00 0.00 48 1015.8
20260502205120 11 321 3.2 9.7 0.00 0.00 0.00 45 1015.9
20260502204121 11 244 4.8 16.1 0.00 0.00 0.00 50 1015.8
20260502203620 11 300 4.8 16.1 0.00 0.00 0.00 43 1015.9
20260502203121 11 331 3.2 16.1 0.00 0.00 0.00 45 1016.0
20260502202621 11 343 3.2 12.9 0.00 0.00 0.00 45 1015.9
20260502202121 11 313 3.2 12.9 0.00 0.00 0.00 44 1016.0
20260502201625 11 324 3.2 14.5 0.00 0.00 0.00 47 1016.1
20260502201621 11 355 3.2 14.5 0.00 0.00 0.00 47 1016.1
20260502200625 10 302 1.6 11.3 0.00 0.00 0.00 52 1015.9
20260502200621 11 322 3.2 14.5 0.00 0.00 0.00 47 1016.0
20260502195622 10 344 3.2 14.5 0.00 0.00 0.00 47 1016.1
20260502195120 10 0 4.8 19.3 0.00 0.00 0.00 46 1016.2
20260502194621 11 325 4.8 19.3 0.00 0.00 0.00 44 1016.2
20260502194122 11 13 6.4 19.3 0.00 0.00 0.00 48 1016.1
20260502193620 10 342 6.4 17.7 0.00 0.00 0.00 47 1016.1
20260502193120 10 17 3.2 17.7 0.00 0.00 0.00 50 1016.1
20260502192624 10 327 3.2 12.9 0.00 0.00 0.00 47 1016.4
20260502192620 10 331 3.2 14.5 0.00 0.00 0.00 47 1016.2
20260502192222 11 327 3.2 9.7 0.00 0.00 0.00 43 1016.5
20260502191118 11 292 3.2 11.3 0.00 0.00 0.00 47 1016.4
20260502190618 11 267 3.2 19.3 0.00 0.00 0.00 46 1016.4
20260502190118 11 274 4.8 19.3 0.00 0.00 0.00 50 1016.6
20260502185618 10 331 3.2 17.7 0.00 0.00 0.00 47 1016.5
20260502185118 10 260 4.8 17.7 0.00 0.00 0.00 47 1016.6
20260502184619 10 329 6.4 20.9 0.00 0.00 0.00 46 1016.6
20260502184116 10 331 6.4 20.9 0.00 0.00 0.00 45 1016.7
20260502183616 10 317 3.2 14.5 0.00 0.00 0.00 47 1016.6
20260502183117 11 304 3.2 8.0 0.00 0.00 0.00 44 1016.6
20260502182616 11 295 4.8 17.7 0.00 0.00 0.00 48 1016.6
20260502182116 11 340 3.2 17.7 0.00 0.00 0.00 45 1016.7
20260502181616 11 329 1.6 8.0 0.00 0.00 0.00 51 1016.7
20260502181120 11 219 4.8 14.5 0.00 0.00 0.00 45 1016.7
20260502181116 11 337 3.2 14.5 0.00 0.00 0.00 48 1016.7
20260502180116 11 345 4.8 14.5 0.00 0.00 0.00 50 1016.7